www.pogodaiklimat.ru

Погода и климат >> Архив погоды >> Антарктида >> San Martin Base


ПОГОДА в San Martin Base

  • Прогноз погоды в San Martin Base
  • Монитор погоды в San Martin Base
  • Климат города

АРХИВ ПОГОДЫ в San Martin Base

Время (UTC), дата Ветер
(напр.,м/с)
 
Видим.   Явления Облачность Т
(С)
Тd
(С)
f
(%)
Тe
(С)
Тes
(С)
Комфортность P
(гПа)
Po
(гПа)
Тmin
(С)
Tmax
(С)
R
(мм)
R24
(мм)
S
(см)
09 9.08 С 1 10 км 10/5 750 м
[Sc Ac As]
-9.0 -11.3 83 -11 -11 992.6 991.7
12 9.08 СВ 7 12 км 10/5 900 м
[Sc Ac As]
+1.8 -4.5 63 -4 -4 988.5 987.6 -22.8 +1.8 36
15 9.08 СВ 7 15 км 10/5 900 м
[Sc Ac As]
+3.8 -3.1 61 -2 -2 985.3 984.4
18 9.08 ЮЗ 2 15 км 10/4 900 м
[Sc Ac As]
+2.0 -4.0 64 -1 -1 983.9 983.0
21 9.08 ЮЗ 2 12 км 10/4 750 м
[Sc Ac As]
+1.4 -3.4 70 -2 -2 982.9 982.0
00 10.08 Ю 6 10 км 10/5 750 м
[Sc Ac As]
+0.8 -3.8 71 -5 -5 983.7 982.8 -0.5 +4.3
03 10.08 С 2 4000 м слабый снег 10/5 540 м
[Sc As op]
-1.4 -3.3 87 -5 -5 986.8 985.8
06 10.08 С 4 10 км в посл. час снег 10/4 750 м
[Sc As op]
-2.8 -3.4 96 -9 -9 991.0 990.1 2
09 10.08 СЗ 3 10 км 10/3 750 м
[Sc Ac As]
-4.2 -5.6 90 -10 -10 994.3 993.4
12 10.08 Ю 3 12 км 8/4 900 м
[Sc Ac As]
-4.6 -6.8 85 -10 -10 998.2 997.3 -5.2 +0.8 2 37
15 10.08 С 2 12 км 10/4 900 м
[Sc Ac As]
-4.4 -6.2 87 -9 -9 1002.2 1001.3
18 10.08 В 3 12 км 8/4 900 м
[Sc Ac As]
-6.0 -8.4 83 -12 -12 1003.7 1002.8
21 10.08 В 2 12 км 6/0
[Ac As]
-5.6 -7.9 84 -10 -10 1005.2 1004.2
00 11.08 С 2 10 км 4/0
[Ac As]
-4.8 -6.2 90 -9 -9 1005.9 1005.0 -6.3 -4.2
03 11.08 Ю 2 10 км ясно -7.6 -10.2 82 -11 -11 1005.5 1004.6
06 11.08 Ю 3 10 км 6/0
[Ac As]
-2.8 -4.8 86 -8 -8 1006.9 1006.0
09 11.08 ЮВ 4 10 км 9/3 750 м
[Sc Ac As]
-2.9 -4.6 88 -9 -9 1007.1 1006.2
12 11.08 СЗ 5 12 км 4/3 750 м
[Sc Ac As]
-1.8 -3.9 86 -8 -8 1006.0 1005.0 -8.2 -1.8 37
15 11.08 Ю 2 15 км 6/4 900 м
[Sc Ci]
-2.4 -5.8 77 -6 -6 1007.2 1006.2
18 11.08 СВ 5 15 км 5/3 900 м
[Sc Ci fib]
+1.2 -6.9 55 -4 -4 1005.8 1004.9
21 11.08 Ю 2 12 км 4/0
[Ci fib]
-2.4 -5.1 82 -6 -6 1004.5 1003.6
00 12.08 З 1 12 км 4/0
[Ci fib]
-6.6 -9.9 77 -9 -9 1002.7 1001.8 -6.6 +1.8
03 12.08 С 9 10 км 4/0
[Ci fib]
-1.6 -3.6 86 -10 -10 1002.3 1001.4
06 12.08 СВ 9 10 км 10/4 900 м
[Sc Ac As]
+2.2 +0.6 89 -5 -5 1001.1 1000.2
09 12.08 С 7 10 км 10/4 600 м
[Sc Ac As]
+2.2 +0.6 89 -4 -4 1002.2 1001.3
12 12.08 В 2 10 км 10/4 750 м
[Sc Ac As]
+1.8 -1.9 76 -1 -1 1003.3 1002.4 -7.5 +2.5 36
15 12.08 Ю 2 10 км 10/5 750 м
[Sc Ac As]
+2.0 -1.1 80 -1 -1 1003.6 1002.7
18 12.08 ЮВ 3 20 км 10/4 750 м
[Sc Ac As]
+0.5 -2.5 80 -4 -4 1003.3 1002.4
21 12.08 ЮВ 4 20 км 10/0
[Ac As Ci sp]
-1.8 -3.7 87 -8 -8 1002.7 1001.8
00 13.08 Ю 2 12 км 10/0
[Ac As Cs]
-3.8 -5.9 85 -7 -7 1002.0 1001.0 -3.8 +2.6
03 13.08 С 3 10 км 10/0
[Ac As Cs]
-5.0 -7.2 85 -11 -11 1001.1 1000.2
06 13.08 Ю 3 10 км 10/0
[Ac As Cs]
-5.8 -8.1 84 -11 -11 1001.1 1000.2
09 13.08 Ю 1 10 км 10/0
[Ac As Cs]
-3.6 -5.7 85 -6 -6 999.6 998.6
12 13.08 ЮВ 4 10 км 9/0
[Ac As Ci sp]
-2.0 -8.6 61 -7 -7 998.0 997.0 -7.2 -1.5 36
15 13.08 З 2 20 км 10/0
[Ac As Ci sp]
-0.8 -4.6 75 -4 -4 997.1 996.2
18 13.08 В 10 20 км 10/0
[Ac As Ci sp]
+0.4 -5.8 63 -7 -7 996.3 995.4
21 13.08 В 11 20 км 9/0
[Ac As Ci sp]
-1.0 -4.9 75 -10 -10 995.3 994.4
00 14.08 В 9 10 км 9/0
[Ac As Cs]
-0.8 -6.8 64 -9 -9 994.6 993.7 -2.0 +1.6
03 14.08 В 6 10 км 10/0
[Ac As Cs]
+0.4 -5.0 67 -6 -6 993.6 992.6
06 14.08 В 10 10 км 10/0
[Ac As]
-1.8 -5.2 78 -11 -11 992.9 992.0
09 14.08 В 10 10 км 8/0
[Ac As Ci]
-1.4 -8.7 58 -10 -10 992.0 991.0
12 14.08 В 11 10 км 9/0
[Ac As Cs]
-2.2 -8.4 62 -11 -11 990.8 989.8 -2.5 +0.5 35
15 14.08 В 7 20 км 9/0
[Ac As Cs]
-1.8 -5.2 78 -9 -9 990.2 989.3
18 14.08 В 2 20 км 9/0
[Ac As Cs]
-2.8 -5.2 84 -6 -6 990.5 989.6
21 14.08 С 6 20 км 6/1 750 м
[Cu hum Ac As Ci fib]
-1.2 -3.8 82 -8 -8 991.4 990.5
00 15.08 СВ 6 12 км ясно -3.6 -8.9 67 -11 -11 991.1 990.2 -3.6 -0.4
03 15.08 В 2 10 км 10/0
[Cs]
-5.2 -11.1 63 -8 -8 989.0 988.1
06 15.08 В 1 10 км 10/0
[Cs]
-3.6 -10.9 57 -5 -5 985.8 984.9
09 15.08 Ю 4 10 км 10/0
[Cs]
-3.4 -10.6 57 -9 -9 983.5 982.6
12 15.08 В 4 10 км 10/0
[Ac As Cs]
-2.5 -8.8 62 -8 -8 981.4 980.5 -6.0 -1.0 35
15 15.08 С 8 20 км 8/0
[Ac As Ci sp]
+1.3 -4.8 64 -5 -5 981.1 980.2
18 15.08 ЮВ 7 20 км 9/1 750 м
[Sc Ac As Ci sp]
-1.8 -5.8 74 -9 -9 978.4 977.4
21 15.08 С 7 10 км 10/5 540 м
[Sc Ac As]
+2.2 -3.8 64 -4 -4 976.2 975.3
00 16.08 С 9 10 км 10/5 600 м
[Sc Ac As]
+3.2 -7.1 47 -3 -3 974.3 973.4 -3.2 +3.2
03 16.08 СВ 5 10 км 9/4 900 м
[Sc Ac As]
+2.6 -6.3 52 -2 -2 971.7 970.9

 

Местоположение метеостанции San Martin Base (Антарктида): широта -68.11 долгота -67.13 высота над уровнем моря 4 м.

В архиве по умолчанию представлена погода в San Martin Base за последнюю неделю. Архивные данные за месяц целиком и за предыдущие месяцы, начиная с января 2011 года, Вы можете получить, выбрав интересующий диапазон дат из раскрывающегося списка и нажав кнопку "Ввод!".


*Определитесь, кто Вы:
робот инопланетянин человек

Внимание! Время в таблицах - всемирное. Для получения местного времени необходимо прибавить поправку, которая в San Martin Base равна 0 ч.

Смотрите также архив погоды в соседних городах и на ближайших метеорологических станциях:

Погода в Rothera (Антарктида) (74 км)
Погода в Larsen Ice Shelf (Антарктида) (267 км)
Погода в Vernadsky (Антарктида) (342 км)
Погода в Fossil Bluff (Антарктида) (361 км)
Погода в Palmer Station (Антарктида) (396 км)
Погода в Butler Island (Антарктида) (525 км)
Погода в Marambio Base (Антарктида) (635 км)
Погода в Bernardo o`Higgins (Антарктида) (679 км)
Погода в Juan Carlos Island (Антарктида) (681 км)
Погода в Esperanza Base (Антарктида) (698 км)

Пояснения к столбцам:

Ветер - указаны скорость ветра в м/с - средняя за 10 мин, порывы в срок и между сроками (в фигурных скобках) и направление, откуда дует ветер: С - северный, СВ - северо-восточный, В - восточный, ЮВ - юго-восточный, Ю - южный, ЮЗ - юго-западный, З - западный, СЗ - северо-западный.
Видимость - горизонтальная дальность видимости в метрах или километрах. При видимости от 1 до 10 км при отсутствии осадков обычно наблюдается дымка, при ухудшении видимости до 1 км и менее - туман. В сухую погоду видимость может ухудшаться дымом, пылью или мглою.
Явления - указаны атмосферные явления, наблюдавшиеся в срок или в последний час перед сроком; фигурными скобками обозначены явления, наблюдавшиеся между сроками (за 1-3 часа до срока); квадратными скобками обозначены град или гололедные отложения с указанием их диаметра в мм.
Облачность - указаны через наклонную черту общая и нижняя облачность в баллах и высота нижней границы облаков в метрах; квадратными скобками обозначены формы облаков: Ci - перистые, Cs - перисто-слоистые, Cc - перисто-кучевые, Ac - высококучевые, As - высокослоистые, Sc - слоисто-кучевые, Ns - слоисто-дождевые, Cu - кучевые, Cb - кучево-дождевые. Подробнее классификацию облаков см. в Атласе облаков (PDF).
T - Температура воздуха - температура, измеренная на высоте 2 м над землей.
Td - Температура точки росы - температура, при понижении до которой содержащийся в воздухе водяной пар достигнет насыщения.
f - Относительная влажность воздуха - влажноcть воздуха, измеренная на высоте 2 м над землей.
Te - Эффективная температура - температура, которую ощущает одетый по сезону человек в тени. Характеристика душности погоды. При расчете учитывается влияние влажности воздуха и скорости ветра на теплоощущения человека.
Tes - Эффективная температура на солнце - температура, которую ощущает человек, с поправкой на солнечный нагрев. Характеристика знойности погоды. Зависит от высоты солнца над горизонтом, облачности и скорости ветра. Ночью, в пасмурную погоду, а также при ветре 12 м/с и более поправка равна нулю.
P - Атмосферное давление - приведенное к уровню моря атмосферное давление.
Po - Атмосферное давление - измеренное на уровне метеостанции атмосферное давление.
Tmin - Минимальная температура - минимум температуры воздуха на высоте 2 м над землей.
Tmax - Максимальная температура - максимум температуры воздуха на высоте 2 м над землей.
R - Количество осадков - Количество выпавших осадков за период времени, мм. При наведении курсора мыши на число - период времени, за который выпало указанное количество осадков.
R24 - Количество осадков - Количество выпавших осадков за 24 часа, мм.
S - Снежный покров - Высота снежного покрова, см. При наведении курсора мыши на число - состояние снежного покрова и степень покрытия местности в баллах.